Wright-Patt AFB, OH

2:32 AM EDT on March 24, 2017 (GMT -0400)
Wright-Patterson Air Force Base

Weather History for KFFO - February, 2013

Change the Weather History Date:

Monday, February 4, 2013

  Actual Average Record
Temperature  
Mean Temperature 22 °F -  
Max Temperature 32 °F 38 °F 59 °F (2008)
Min Temperature 12 °F 21 °F 2 °F (2007)
Degree Days  
Heating Degree Days 43    
Moisture  
Dew Point 21 °F    
Average Humidity 76    
Maximum Humidity 90    
Minimum Humidity 59    
Precipitation  
Precipitation 0.02 in - - ()
Snow  
Snow 0.00 in - - ()
Snow Depth 1.00 in    
Sea Level Pressure  
Sea Level Pressure 29.93 in    
Wind  
Wind Speed 7 mph (South)    
Max Wind Speed 14 mph    
Max Gust Speed 23 mph    
Visibility 6 miles    
Events Snow    
Averages and records for this station are not official NWS values.
T = Trace of Precipitation, MM = Missing Value Source: NWS Daily Summary

Daily Weather History Graph

Daily Weather History Graph

Search for Another Location

Airport or City:

Trip Planner

Search our weather history database for the weather conditions in past years. The results will help you decide how hot, cold, wet, or windy it might be!

Date:

Astronomy

Feb. 04, 2013 Rise Set
Actual Time 7:41 AM EST 5:59 PM EST
Civil Twilight 7:12 AM EST 6:28 PM EST
Nautical Twilight 6:40 AM EST 7:00 PM EST
Astronomical Twilight 6:09 AM EST 7:31 PM EST
Moon 2:15 AM EST (2/4) 12:22 PM EST (2/4)
Length of Visible Light 11h 15m
Length of Day
10h 18m
Last Quarter, 37% of the Moon is Illuminated
Feb 4
Last Quarter
Feb 10
New
Feb 17
First Quarter
Feb 25
Full
Mar 4
Last Quarter

Hourly Weather History & Observations

Time (EST) Temp. Windchill Dew Point Humidity Pressure Visibility Wind Dir Wind Speed Gust Speed Precip Events Conditions
12:55 AM 12.0 °F 2.7 °F 8.1 °F 84% 30.13 in 10.0 mi SSW 5.8 mph - N/A   Clear
1:55 AM 12.9 °F 2.6 °F 9.3 °F 86% 30.13 in 10.0 mi SSW 6.9 mph - N/A   Clear
2:55 AM 14.4 °F 2.4 °F 10.2 °F 84% 30.13 in 10.0 mi SSW 9.2 mph - N/A   Scattered Clouds
3:55 AM 15.1 °F 6.4 °F 10.6 °F 82% 30.11 in 10.0 mi SSW 5.8 mph - N/A   Scattered Clouds
5:55 AM 19.6 °F 13.0 °F 14.4 °F 80% 30.09 in 10.0 mi South 4.6 mph - N/A   Overcast
6:55 AM 20.3 °F 12.5 °F 14.7 °F 79% 30.06 in 10.0 mi SE 5.8 mph - N/A   Overcast
7:55 AM 20.7 °F 11.9 °F 15.3 °F 80% 30.04 in 10.0 mi SSE 6.9 mph - N/A   Overcast
8:55 AM 22.3 °F 13.9 °F 15.8 °F 76% 30.03 in 10.0 mi SSE 6.9 mph - N/A   Overcast
9:55 AM 24.4 °F 14.2 °F 16.5 °F 72% 30.00 in 10.0 mi SSE 10.4 mph - N/A   Overcast
10:55 AM 26.8 °F 16.5 °F 15.8 °F 63% 29.98 in 10.0 mi South 11.5 mph - N/A   Overcast
11:55 AM 27.9 °F 18.4 °F 15.6 °F 60% 29.96 in 10.0 mi SSE 10.4 mph - N/A   Overcast
12:38 PM 28.4 °F 21.2 °F 15.8 °F 59% 29.94 in 10.0 mi SSE 6.9 mph - N/A   Overcast
12:41 PM 28.4 °F 19.7 °F 15.8 °F 59% 29.89 in 5.0 mi SSE 9.2 mph - N/A Snow Light Snow
12:48 PM 28.4 °F 19.7 °F 17.6 °F 64% 29.93 in 4.0 mi SSE 9.2 mph - N/A Snow Light Snow
12:55 PM 28.6 °F 19.9 °F 17.8 °F 64% 29.93 in 4.0 mi SSE 9.2 mph - 0.00 in Snow Light Snow
12:57 PM 28.4 °F 19.7 °F 17.6 °F 64% 29.92 in 4.0 mi SSE 9.2 mph - N/A Snow Light Snow
1:17 PM 28.4 °F 22.2 °F 19.4 °F 69% 29.91 in 7.0 mi SE 5.8 mph - N/A Snow Light Snow
1:22 PM 28.6 °F 19.9 °F 17.8 °F 64% 29.93 in 4.0 mi SSE 9.2 mph - 0.00 in Snow Light Snow
1:26 PM 28.4 °F 23.3 °F 19.4 °F 69% 29.91 in 7.0 mi ESE 4.6 mph - N/A Snow Light Snow
1:48 PM 30.2 °F 25.4 °F 19.4 °F 64% 29.90 in 7.0 mi SSE 4.6 mph - N/A Snow Light Snow
1:52 PM 30.2 °F 25.4 °F 19.4 °F 64% 29.90 in 5.0 mi SSE 4.6 mph - N/A Snow Light Snow
1:55 PM 29.5 °F 24.5 °F 19.8 °F 67% 29.90 in 5.0 mi SSE 4.6 mph - 0.00 in Snow Light Snow
2:01 PM 30.2 °F - 21.2 °F 69% 29.89 in 5.0 mi Calm Calm - N/A Snow Light Snow
2:12 PM 30.2 °F - 21.2 °F 69% 29.89 in 7.0 mi Calm Calm - N/A Snow Light Snow
2:23 PM 30.2 °F 22.6 °F 21.2 °F 69% 29.89 in 5.0 mi SSW 8.1 mph - N/A Snow Light Snow
2:34 PM 32.0 °F 24.8 °F 23.0 °F 69% 29.84 in 1.5 mi SSW 8.1 mph 19.6 mph N/A Snow Light Snow
2:55 PM 30.2 °F 19.8 °F 23.5 °F 76% 29.88 in 1.5 mi SSW 13.8 mph 18.4 mph 0.00 in Snow Light Snow
3:01 PM 30.2 °F 20.2 °F 23.0 °F 75% 29.88 in 1.5 mi South 12.7 mph 23.0 mph N/A Snow Light Snow
3:07 PM 30.2 °F 19.8 °F 24.8 °F 80% 29.88 in 1.5 mi SSW 13.8 mph 23.0 mph N/A Snow Light Snow
3:15 PM 30.2 °F 21.3 °F 24.8 °F 80% 29.87 in 1.0 mi SSW 10.4 mph - N/A Snow Light Snow
3:30 PM 30.2 °F 22.6 °F 24.8 °F 80% 29.87 in 1.5 mi South 8.1 mph - N/A Snow Light Snow
3:55 PM 29.7 °F 20.7 °F 25.7 °F 85% 29.86 in 1.5 mi South 10.4 mph - 0.02 in Snow Light Snow
3:58 PM 30.2 °F 21.9 °F 26.6 °F 86% 29.86 in 2.0 mi South 9.2 mph - N/A Snow Light Snow
4:15 PM 30.2 °F 21.3 °F 26.6 °F 86% 29.86 in 2.0 mi South 10.4 mph - N/A Snow Light Snow
4:33 PM 30.2 °F 24.3 °F 24.8 °F 80% 29.86 in 5.0 mi SSW 5.8 mph - N/A   Overcast
4:43 PM 30.2 °F 25.4 °F 24.8 °F 80% 29.87 in 5.0 mi SSW 4.6 mph - N/A   Overcast
4:55 PM 30.4 °F - 25.3 °F 82% 29.86 in 5.0 mi Calm Calm - 0.00 in   Overcast
5:03 PM 30.2 °F - 24.8 °F 80% 29.86 in 5.0 mi Calm Calm - N/A   Overcast
6:55 PM 30.9 °F 27.5 °F 26.1 °F 82% 29.87 in 7.0 mi South 3.5 mph - N/A   Overcast
7:55 PM 31.1 °F 26.4 °F 26.8 °F 84% 29.86 in 10.0 mi SSE 4.6 mph - N/A   Overcast
8:55 PM 31.3 °F 27.9 °F 27.3 °F 85% 29.89 in 10.0 mi South 3.5 mph - N/A   Overcast
9:10 PM 32.0 °F - 26.6 °F 80% 29.89 in 9.0 mi Calm Calm - N/A   Overcast
9:55 PM 30.7 °F - 27.3 °F 87% 29.90 in 8.0 mi Calm Calm - N/A   Overcast
10:16 PM 32.0 °F 27.5 °F 28.4 °F 87% 29.89 in 8.0 mi South 4.6 mph - N/A   Overcast
10:55 PM 31.3 °F - 28.2 °F 88% 29.89 in 7.0 mi Calm Calm - N/A   Overcast
11:15 PM 32.0 °F - 28.4 °F 87% 29.88 in 8.0 mi Calm Calm - N/A   Overcast
11:43 PM 32.0 °F - 28.4 °F 87% 29.88 in 7.0 mi Calm Calm - N/A   Overcast
11:55 PM 31.3 °F - 28.6 °F 90% 29.88 in 6.0 mi Calm Calm - N/A   Overcast